{"data":{"norad_id":65277,"epoch":"2026-05-25T02:44:06.738432Z","epoch_age_seconds":65097,"freshness":"FRESH","line1":"1 65277U 25184E   26145.11396688  .00002088  00000+0  14872-3 0  9999","line2":"2 65277  97.4501 197.6744 0002278 142.2439 217.8948 15.05655195 42802","mean_motion":15.05655195,"eccentricity":0.0002278,"inclination_deg":97.4501,"raan_deg":197.6744,"arg_perigee_deg":142.2439,"mean_anomaly_deg":217.8948,"bstar":0.00014872,"rev_number":4280,"period_min":95.639426927358,"perigee_km":547.91710431799,"apogee_km":551.07333355694,"semimajor_km":6927.6322189375,"source":"CELESTRAK","updated_at":"2026-05-25T13:38:20.730138Z"}}